www.pogodaiklimat.ru

Погода и климат >> Архив погоды >> Россия >> Курганская область >> Шатрово


ПОГОДА в Шатрово

  • Прогноз погоды в Шатрово
  • Монитор погоды в Шатрово

АРХИВ ПОГОДЫ в Шатрово

Время (UTC), дата Ветер
(напр.,м/с)
 
Видим.   Явления Облачность Т
(С)
Тd
(С)
f
(%)
Тe
(С)
Тes
(С)
Комфортность P
(гПа)
Po
(гПа)
Тmin
(С)
Tmax
(С)
R
(мм)
R24
(мм)
S
(см)
09 9.07 З 4 20 км 9/6 600 м
[Cb calv Ac trans]
+20.0 +11.8 59 +22 +24 комфорт 1007.5 994.3
12 9.07 СЗ 3 20 км 4/3 600 м
[Cb calv Ac trans]
+22.0 +11.6 52 +24 +28 комфорт 1007.9 994.8
15 9.07 З 2 20 км 3/0
[Ac trans Ci fib]
+21.7 +11.1 51 +24 +24 комфорт 1008.6 995.4 +22.4
18 9.07 штиль 0 10 км 3/0
[Ci fib]
+13.2 +11.2 88 +13 +13 1010.1 996.5
21 9.07 В 1 10 км 3/0
[Ac trans Ci fib]
+10.0 +8.7 92 +9 +9 1010.2 996.5
00 10.07 В 1 4000 м дымка 4/0
[Ac trans Ci fib]
+7.6 +6.5 93 +7 +7 1010.2 996.3
03 10.07 Ю 2 20 км 6/0
[Ac trans Ci fib]
+19.2 +11.7 62 +21 +25 комфорт 1009.8 996.5 +7.2
06 10.07 Ю 4 20 км 9/3 1000 м
[Cu hum Ac trans Ci fib]
+21.8 +10.8 50 +24 +27 комфорт 1009.2 996.1
09 10.07 ЮВ 5
{10}
20 км 9/3 1000 м
[Cu hum Ac trans Ci fib]
+25.6 +11.6 42 +27 +30 жарко 1007.4 994.5
12 10.07 Ю 4
{10}
20 км 10/4 600 м
[Cb calv Ac trans Ci fib]
+25.0 +12.4 45 +27 +28 жарко 1006.8 993.9
15 10.07 ЮВ 2 20 км 10/4 600 м
[Cb calv Ac und]
+23.6 +12.6 50 +26 +26 жарко 1006.7 993.7 +26.1
18 10.07 ЮВ 3 10 км {ливн. осадки} 10/4 600 м
[Cb calv Ac und]
+21.3 +12.8 58 +24 +24 комфорт 1006.1 993.0
21 10.07 ЮВ 3 10 км 10/6 600 м
[Cb calv Ac und]
+19.8 +12.1 61 +22 +22 комфорт 1005.1 991.9
00 11.07 ЮВ 3 20 км 9/3 600 м
[Cb calv Ac trans Ci fib]
+20.2 +9.7 51 +22 +22 комфорт 1004.5 991.4
03 11.07 ЮЗ 3 20 км {ливн. осадки} 10/4 600 м
[Cb calv Ac und]
+20.4 +13.2 63 +23 +24 комфорт 1006.8 993.6 +19.7
06 11.07 Ю 3 20 км {ливн. осадки} 10/3 600 м
[Cb calv Ac und]
+22.2 +13.7 59 +25 +28 комфорт 1006.4 993.3
09 11.07 Ю 5 20 км 8/1 1000 м
[Cu hum Ci fib]
+25.5 +14.7 51 +28 +34 жарко 1006.6 993.7
12 11.07 Ю 2 20 км 9/8 600 м
[Cb calv Ci fib]
+25.1 +16.4 59 +29 +30 душно 1007.2 994.3
15 11.07 Ю 1 20 км ясно +25.8 +16.2 55 +29 +30 душно 1008.0 995.0 +27.5
18 11.07 В 1 4000 м дымка 3/0
[Ci fib]
+17.4 +15.7 90 +18 +18 1009.4 996.0
21 11.07 З 3 10 км 3/0
[Ci fib]
+16.0 +14.7 92 +15 +15 1010.5 997.1
00 12.07 штиль 0 4000 м дымка 9/0
[Ci fib]
+14.0 +12.8 92 +14 +14 1011.0 997.4
03 12.07 СВ 1 20 км 8/0
[Ci fib]
+22.1 +16.4 70 +26 +31 душно 1011.3 998.1 +13.8
06 12.07 ЮВ 1 20 км 8/0
[Ci fib]
+27.0 +17.7 57 +31 +44 душно 1011.6 998.7
09 12.07 З 2 20 км 8/3 1000 м
[Cu hum Ci fib]
+29.0 +15.9 45 +32 +40 душно 1012.2 999.4
12 12.07 СЗ 1 20 км 8/1 1000 м
[Cu hum Ci fib]
+29.5 +13.9 38 +31 +37 жарко 1012.4 999.6
15 12.07 СЗ 1 20 км 8/0
[Ci fib]
+26.6 +14.4 47 +29 +29 жарко 1013.0 1000.1 +30.1
18 12.07 штиль 0 10 км 3/0
[Ci fib]
+20.0 +14.8 72 +22 +22 комфорт 1013.7 1000.4
21 12.07 СВ 1 10 км 3/0
[Ci fib]
+18.2 +15.3 83 +20 +20 1013.8 1000.5
00 13.07 В 2 4000 м дымка 4/0
[Ci fib]
+17.7 +16.4 92 +18 +18 1013.3 999.9
03 13.07 В 2 20 км 3/0
[Ci fib]
+23.7 +18.2 71 +28 +33 душно 1013.0 999.9 +16.8
06 13.07 ЮВ 4 20 км 3/0
[Ci fib]
+29.1 +17.0 48 +33 +41 очень
душно
1012.5 999.6
09 13.07 ЮВ 5 20 км 4/0
[Ci fib]
+32.4 +12.2 29 +33 +39 жарко 1011.8 999.1
12 13.07 ЮВ 6
{10}
20 км 4/0
[Ci fib]
+31.3 +12.4 31 +32 +34 жарко 1011.2 998.4
15 13.07 ЮВ 4 20 км 3/0
[Ci fib]
+28.0 +13.1 40 +30 +30 жарко 1011.7 998.8 +33.0
18 13.07 В 2 10 км 1/0
[Ci fib]
+18.9 +14.1 74 +21 +21 комфорт 1012.7 999.4
21 13.07 В 1 10 км 3/0
[Ci fib]
+15.5 +12.4 82 +16 +16 1013.1 999.6
00 14.07 В 1 20 км 1/0
[Ci fib]
+13.8 +11.9 88 +14 +14 1013.5 999.9
03 14.07 В 3 20 км 1/0
[Ci fib]
+22.4 +15.6 65 +26 +30 жарко 1012.4 999.2 +12.9
06 14.07 ЮВ 4 20 км ясно +27.4 +14.4 45 +30 +39 жарко 1012.2 999.3
09 14.07 В 5 20 км ясно +30.2 +13.5 36 +32 +39 жарко 1011.0 998.2
12 14.07 В 6 20 км 1/0
[Ci fib]
+29.9 +12.6 35 +31 +33 жарко 1010.5 997.7
15 14.07 ЮВ 4 20 км 4/0
[Ci fib]
+26.9 +14.0 45 +29 +29 жарко 1010.4 997.5 +30.7
18 14.07 В 1 10 км 6/0
[Ci fib]
+18.4 +13.8 75 +20 +20 1010.7 997.4
21 14.07 В 1 10 км 8/0
[Ac trans Ci fib]
+15.7 +13.0 84 +16 +16 1010.1 996.6
00 15.07 В 1 20 км 9/0
[Ac trans Ci fib]
+15.2 +13.6 90 +16 +16 1009.9 996.5
03 15.07 В 4 20 км 10/0
[Ac trans Ci fib]
+22.4 +16.6 70 +27 +29 душно 1008.7 995.6 +14.1
06 15.07 В 4 20 км 9/0
[Ci fib]
+27.5 +17.0 53 +31 +39 душно 1007.7 994.9
09 15.07 В 6-11
{11}
20 км 8/0
[Ci fib]
+30.3 +14.6 38 +32 +37 жарко 1006.1 993.4
12 15.07 ЮВ 7-13
{13}
20 км 10/0
[Ac trans Ci fib]
+30.7 +13.4 35 +32 +33 жарко 1004.5 991.8
15 15.07 В 5-10
{13}
20 км 6/0
[Ac trans Ci fib]
+27.9 +15.1 46 +31 +31 душно 1003.0 990.2 +31.4
18 15.07 В 5
{10}
10 км 8/0
[Ac trans]
+25.5 +15.7 55 +29 +29 душно 1002.2 989.3
21 15.07 В 3
{10}
10 км 8/0
[Ac trans]
+22.8 +14.1 58 +26 +26 жарко 1000.5 987.5
00 16.07 ЮВ 3 20 км 9/0
[Ac trans Ci fib]
+22.5 +13.9 58 +26 +26 жарко 999.6 986.6
03 16.07 Ю 2 20 км гроза, ливневой дождь 9/8 600 м
[Cb calv Ac trans]
+18.3 +14.0 76 +19 +20 1001.3 988.1 +18.3
06 16.07 Ю 5 20 км {гроза, ливн. осадки} 10/6 1000 м
[Cu hum Ci fib]
+22.1 +12.3 54 +25 +27 комфорт 1002.1 989.0 +18.1

 

Местоположение метеостанции Шатрово (Курганская область, Россия): широта 56.52 долгота 64.65 высота над уровнем моря 114 м.

В архиве по умолчанию представлена погода в Шатрово за последнюю неделю. Архивные данные за месяц целиком и за предыдущие месяцы, начиная с января 2011 года, Вы можете получить, выбрав интересующий диапазон дат из раскрывающегося списка и нажав кнопку "Ввод!".


*Определитесь, кто Вы:
робот инопланетянин человек

Внимание! Время в таблицах - всемирное. Для получения местного времени необходимо прибавить поправку, которая равна 5 ч.

Смотрите также архив погоды в соседних городах и на ближайших метеорологических станциях:

Погода в Исетском (Тюменская область, Россия) (42 км)
Погода в Бутке (Свердловская область, Россия) (58 км)
Погода в Тугулыме (Свердловская область, Россия) (61 км)
Погода в Шадринске (Курганская область, Россия) (79 км)
Погода в Тюмени (Тюменская область, Россия) (82 км)
Погода в Памятном (Курганская область, Россия) (85 км)
Погода в Ялуторовске (Тюменская область, Россия) (106 км)
Погода в Далматово (Курганская область, Россия) (109 км)
Погода в Камышлове (Свердловская область, Россия) (123 км)
Погода в Кургане (Курганская область, Россия) (128 км)

Пояснения к столбцам:

Ветер - указаны скорость ветра в м/с - средняя за 10 мин, порывы в срок и между сроками (в фигурных скобках) и направление, откуда дует ветер: С - северный, СВ - северо-восточный, В - восточный, ЮВ - юго-восточный, Ю - южный, ЮЗ - юго-западный, З - западный, СЗ - северо-западный.
Видимость - горизонтальная дальность видимости в метрах или километрах. При видимости от 1 до 10 км при отсутствии осадков обычно наблюдается дымка, при ухудшении видимости до 1 км и менее - туман. В сухую погоду видимость может ухудшаться дымом, пылью или мглою.
Явления - указаны атмосферные явления, наблюдавшиеся в срок или в последний час перед сроком; фигурными скобками обозначены явления, наблюдавшиеся между сроками (за 1-3 часа до срока); квадратными скобками обозначены град или гололедные отложения с указанием их диаметра в мм.
Облачность - указаны через наклонную черту общая и нижняя облачность в баллах и высота нижней границы облаков в метрах; квадратными скобками обозначены формы облаков: Ci - перистые, Cs - перисто-слоистые, Cc - перисто-кучевые, Ac - высококучевые, As - высокослоистые, Sc - слоисто-кучевые, Ns - слоисто-дождевые, Cu - кучевые, Cb - кучево-дождевые. Подробнее классификацию облаков см. в Атласе облаков (PDF).
T - Температура воздуха - температура, измеренная на высоте 2 м над землей.
Td - Температура точки росы - температура, при понижении до которой содержащийся в воздухе водяной пар достигнет насыщения.
f - Относительная влажность воздуха - влажноcть воздуха, измеренная на высоте 2 м над землей.
Te - Эффективная температура - температура, которую ощущает одетый по сезону человек в тени. Характеристика душности погоды. При расчете учитывается влияние влажности воздуха и скорости ветра на теплоощущения человека.
Tes - Эффективная температура на солнце - температура, которую ощущает человек, с поправкой на солнечный нагрев. Характеристика знойности погоды. Зависит от высоты солнца над горизонтом, облачности и скорости ветра. Ночью, в пасмурную погоду, а также при ветре 12 м/с и более поправка равна нулю.
P - Атмосферное давление - приведенное к уровню моря атмосферное давление.
Po - Атмосферное давление - измеренное на уровне метеостанции атмосферное давление.
Tmin - Минимальная температура - минимум температуры воздуха на высоте 2 м над землей.
Tmax - Максимальная температура - максимум температуры воздуха на высоте 2 м над землей.
R - Количество осадков - Количество выпавших осадков за период времени, мм. При наведении курсора мыши на число - период времени, за который выпало указанное количество осадков.
R24 - Количество осадков - Количество выпавших осадков за 24 часа, мм.
S - Снежный покров - Высота снежного покрова, см. При наведении курсора мыши на число - состояние снежного покрова и степень покрытия местности в баллах.